Lid_Strength_Index
10 10 10 10 10 10 11 10 12 11 11 10 8 7 7 7 7 8 8 8 7 7 7 8 8 8 8 8 7 7 8 8 8 8 7 7 7 6 5 5 4 4 4 4
11 10 10 11 10 10 10 11 11 11 11 7 7 7 7 8 8 8 8 7 7 8 9 9 9 9 8 8 8 8 8 8 7 7 7 6 6 5 4 4 4 4 4 4
12 11 11 13 11 10 10 10 10 11 9 7 8 8 7 8 8 8 7 7 8 9 9 9 9 9 8 8 8 8 7 8 7 7 7 7 6 6 5 5 4 4 4 4
12 11 16 11 8 8 9 9 8 8 8 7 7 7 7 7 7 7 8 8 9 9 9 9 8 8 8 7 8 7 8 7 7 7 7 6 6 6 6 5 5 5 6 5
15 14 12 11 9 10 11 10 7 8 7 7 7 7 8 7 7 8 8 8 9 9 8 8 8 8 8 8 8 8 8 8 7 6 7 7 7 7 7 7 7 7 7 7
13 17 17 10 8 6 7 12 7 7 7 7 7 10 8 8 8 8 8 8 8 8 8 8 8 8 8 8 8 9 8 8 7 7 8 8 8 7 7 7 7 7 7 7
14 15 12 8 7 7 13 11 6 6 6 7 8 8 9 8 8 8 8 9 8 9 9 9 8 8 9 9 9 8 8 8 8 8 8 8 8 8 8 8 8 8 7 6
13 14 17 6 8 11 7 6 6 6 6 7 8 9 9 8 9 9 9 9 9 9 9 8 7 8 9 9 8 8 8 8 8 8 8 8 8 7 6 6 6 6 5 5
12 12 7 5 7 7 5 5 6 6 6 8 9 9 9 9 9 9 9 9 9 9 9 8 8 8 9 8 8 8 8 8 7 7 6 5 6 6 6 6 6 6 6 5
10 8 7 6 6 6 6 5 5 5 7 8 9 9 8 9 9 9 9 9 8 8 8 9 8 8 8 9 8 7 7 7 6 6 6 6 6 6 6 6 6 6 6 5
9 8 7 6 6 6 6 6 6 7 8 8 8 8 8 9 10 9 9 8 7 8 8 8 7 7 7 7 6 6 6 6 6 7 7 7 6 8 7 7 8 6 6 6
10 6 6 6 5 6 7 6 7 8 9 8 8 8 9 9 9 9 9 8 8 7 7 6 6 6 6 6 6 6 7 8 8 8 7 7 7 7 9 10 10 10 10 8
6 5 6 6 6 6 6 7 8 9 8 8 8 8 9 9 9 8 8 8 7 6 6 6 7 7 6 6 6 7 7 7 7 8 8 7 7 7 6 8 9 10 9 10
5 5 7 7 7 6 6 7 8 8 8 7 7 8 9 9 9 8 8 7 6 6 6 6 6 7 6 6 6 7 7 10 7 7 7 7 7 7 7 7 7 7 9 9
5 6 5 6 6 7 6 8 9 9 8 8 7 8 9 9 9 8 7 6 6 6 6 6 7 7 6 6 7 7 7 7 7 7 7 8 7 7 7 6 6 6 6 7
6 6 6 6 7 7 7 9 9 9 8 7 8 9 9 9 9 8 6 6 6 6 7 6 6 6 6 6 6 6 7 10 9 7 7 7 7 7 7 7 7 7 7 7
7 8 7 7 8 8 8 9 8 8 8 7 8 9 9 9 9 7 6 6 6 6 6 6 6 6 6 6 6 5 6 6 11 7 7 7 7 7 7 7 7 7 7 8
5 4 5 5 7 7 9 8 8 8 7 7 8 9 9 9 8 7 6 6 6 6 6 6 6 6 6 6 6 5 6 6 7 7 7 7 7 6 6 6 6 6 6 6
5 6 6 6 6 6 8 8 7 7 7 7 8 9 9 9 8 7 6 6 6 6 5 5 8 7 5 6 7 6 6 6 6 6 6 8 6 6 6 6 6 6 5 5
6 6 6 7 6 6 7 7 6 7 7 7 7 9 10 9 8 7 6 6 5 4 5 5 5 5 5 6 9 5 6 6 6 6 6 6 6 6 6 8 6 5 4 5
7 7 7 7 7 6 6 6 6 7 7 7 8 8 9 9 8 7 7 7 5 5 5 7 5 5 5 8 7 5 5 5 6 6 6 5 5 5 5 4 4 4 4 4
7 7 7 6 6 6 7 6 5 6 7 7 8 8 9 9 9 8 7 6 5 10 5 4 4 10 8 12 5 5 5 6 6 5 5 5 5 4 4 4 4 3 3 3
7 7 6 6 6 6 7 6 6 6 7 7 8 9 9 9 8 8 8 5 5 7 4 4 10 12 14 5 5 5 5 6 6 5 5 4 3 3 3 3 3 2 2 2
6 6 5 5 5 6 8 6 6 6 6 7 7 8 8 9 9 7 7 8 10 9 5 4 7 12 13 5 5 5 5 5 5 5 4 8 3 3 3 3 2 2 2 3
6 6 5 5 5 6 8 6 6 6 6 7 8 8 7 7 8 8 7 5 9 8 4 9 11 11 4 4 5 5 5 5 5 5 4 3 3 3 3 3 2 2 2 2
6 6 6 6 6 6 8 7 6 6 7 8 8 7 7 7 7 6 6 7 4 7 4 4 4 4 4 5 5 5 5 5 5 5 4 3 3 3 3 3 3 2 2 1
5 7 6 6 6 6 7 7 6 6 7 8 8 7 7 6 6 7 8 5 4 5 5 5 5 6 5 5 5 5 4 5 8 4 3 3 3 2 2 2 1 1 1 1